Regional Weather Roundup
Issued by NWS

Home | Current Version | Previous Version | Graphics & Text | Print | Product List | Glossary Off
Versions: 1 2 3 4 5 6 7 8 9 10 11 12 13 14 15 16 17 18 19 20 21 22 23 24 25 26 27 28 29 30 31 32 33 34 35 36 37 38 39 40 41 42 43 44 45 46 47 48 49 50

000
ASUS43 KDTX 300610
RWRMI
MICHIGAN HOURLY REGIONAL WEATHER ROUNDUP
NATIONAL WEATHER SERVICE DETROIT/PONTIAC MI
200 AM EDT MON MAR 30 2015

NOTE: "FAIR" INDICATES FEW OR NO CLOUDS BELOW 12,000 FEET WITH NO
SIGNIFICANT WEATHER AND/OR OBSTRUCTION TO VISIBILITY.

MIZ047>049-052>055-059>063-066>070-074>076-081>083-300700-
SOUTHEAST LOWER MICHIGAN

CITY           SKY/WX    TMP DP  RH WIND       PRES   REMARKS
ADRIAN         CLOUDY    42  32  67 W16G25    29.82R
6HR MIN TEMP:  39; 6HR MAX TEMP:  43;

ALMA           CLOUDY    39  34  83 W13G22    29.75R WCI  31
ANN ARBOR      CLOUDY    42  32  67 W16G30    29.78R
BAD AXE        CLOUDY    37  33  87 W21G28    29.63R WCI  26
CARO           CLOUDY    38  34  86 W14       29.68R WCI  29
DETROIT CITY   CLOUDY    44  32  62 W17G30    29.74R
6HR MIN TEMP:  42; 6HR MAX TEMP:  45; 6HR PCP: TRACE;

DETROIT        CLOUDY    44  32  62 W23G36    29.77R
6HR MIN TEMP:  41; 6HR MAX TEMP:  44; 6HR PCP: TRACE;

FLINT          CLOUDY    41  33  73 W22G29    29.73R
6HR MIN TEMP:  38; 6HR MAX TEMP:  41; 6HR PCP: TRACE;

GROSSE ILE     CLOUDY    43  34  70 W14G22    29.76R
HILLSDALE      CLOUDY    41  33  71 W16       29.81S
6HR MIN TEMP:  39; 6HR MAX TEMP:  43;

HOWELL         CLOUDY    40  33  77 W22G28    29.75R WCI  29
6HR MIN TEMP:  37; 6HR MAX TEMP:  40;


CITY           SKY/WX    TMP DP  RH WIND       PRES   REMARKS
JACKSON        CLOUDY    40  31  70 W16G30    29.80R WCI  31
6HR MIN TEMP:  38; 6HR MAX TEMP:  41; 6HR PCP: TRACE;

LAMBERTVILLE   CLOUDY    43  32  65 W13G22    29.82R
LANSING        CLOUDY    39  32  76 W17G23    29.79R WCI  30
6HR MIN TEMP:  38; 6HR MAX TEMP:  40; 6HR PCP:  0.01;

LAPEER         CLOUDY    38  34  83 W13G24    29.70R WCI  31
MASON          CLOUDY    39  32  76 W18G24    29.79R WCI  29
MONROE         CLOUDY    43  34  70 W18G26    29.78R
MT. CLEMENS    CLOUDY    42  33  69 W17G30    29.69R
6HR MIN TEMP:  40; 6HR MAX TEMP:  42; 6HR PCP: TRACE;

PONTIAC        CLOUDY    39  33  79 W22G33    29.72R WCI  29
6HR MIN TEMP:  37; 6HR MAX TEMP:  40; 6HR PCP: TRACE;

PORT HOPE        N/A     38  32  79 W16G30    29.58R WCI  29
6HR MIN TEMP:  35; 6HR MAX TEMP:  38; 6HR PCP:  0.02;

PORT HURON     CLOUDY    39  36  87 W13G22    29.68R WCI  32
TRI CITIES     CLOUDY    40  32  73 W16G28    29.71R WCI  31
6HR MIN TEMP:  36; 6HR MAX TEMP:  40; 6HR PCP: TRACE;

TROY           CLOUDY    42  32  67 W14G26    29.75R
SAGINAW HB     CLOUDY    37  34  87 W17       29.70R WCI  28
$$
MIZ043>046-050>051-056>058-064>065-071>073-077>080-300700-
SOUTHWEST LOWER MICHIGAN

CITY           SKY/WX    TMP DP  RH WIND       PRES   REMARKS
BATTLE CREEK   CLOUDY    41  33  73 W17G25    29.84R
6HR MIN TEMP:  38; 6HR MAX TEMP:  42; 6HR PCP: TRACE;

BENTON HARBOR  PTCLDY    38  31  76 W14G26    29.91R WCI  30
6HR MIN TEMP:  38; 6HR MAX TEMP:  44; 6HR PCP: TRACE;

BIG RAPIDS     CLOUDY    38  33  82 W8G18     29.74R WCI  32
6HR MIN TEMP:  34; 6HR MAX TEMP:  38;

COLDWATER      CLOUDY    41  31  68 W17G24    29.84S
6HR MIN TEMP:  39; 6HR MAX TEMP:  42;

FREMONT        CLOUDY    38  32  78 W14       29.79R WCI  29
HOLLAND        CLOUDY    40  31  70 W15G22    29.86R WCI  32
6HR MIN TEMP:  39; 6HR MAX TEMP:  43; 6HR PCP:  0.01;

GRAND RAPIDS   CLOUDY    40  32  73 W15G24    29.81R WCI  32
6HR MIN TEMP:  36; 6HR MAX TEMP:  41; 6HR PCP:  0.05;

IONIA          CLOUDY    40  33  75 W15       29.78R WCI  31
KALAMAZOO      CLOUDY    42  32  67 NW18      29.85R
6HR MIN TEMP:  39; 6HR MAX TEMP:  43; 6HR PCP:  0.01;

LUDINGTON      CLEAR     38  33  81 NW12G17   29.80R WCI  30
6HR MIN TEMP:  36; 6HR MAX TEMP:  40; 6HR PCP:  0.02;

MARSHALL       CLOUDY    39  32  75 W14G25    29.82R WCI  31
MOUNT PLEASANT MOCLDY    38  33  83 W10G22    29.72R WCI  30
6HR MIN TEMP:  34; 6HR MAX TEMP:  38;

MUSKEGON       MOCLDY    39  31  72 W18G25    29.83R WCI  30
6HR MIN TEMP:  36; 6HR MAX TEMP:  41; 6HR PCP:  0.01;

SOUTH HAVEN    CLOUDY    40  31  70 W9G18     29.89R WCI  33
$$
MIZ016>042-300700-
NORTHERN LOWER MICHIGAN

CITY           SKY/WX    TMP DP  RH WIND       PRES   REMARKS
ALPENA         LGT RAIN  35  32  88 W12G22    29.56R WCI  27
6HR MIN TEMP:  34; 6HR MAX TEMP:  37; 6HR PCP: TRACE;

BEAVER ISLAND  CLOUDY    35  32  90 W9G17     29.64R WCI  27
6HR MIN TEMP:  33; 6HR MAX TEMP:  35;

BELLAIRE       CLOUDY    37  32  82 W8G21     29.68R WCI  31
6HR MIN TEMP:  33; 6HR MAX TEMP:  37;

CADILLAC       CLOUDY    36  32  87 W13G20    29.69R WCI  27
CHARLEVOIX     CLOUDY    35  33  95 W17G26    29.69R WCI  24
FRANKFORT      PTCLDY    39  30  70 NW10G16   29.75R WCI  32
GAYLORD        LGT SNOW  33  32  96 NW15G25   29.61R FOG     WCI  23
6HR MIN TEMP:  32; 6HR MAX TEMP:  33; 6HR PCP:  0.02;

GRAYLING       FLURRIES  34  32  90 W13G24    29.64R WCI  25
6HR MIN TEMP:  32; 6HR MAX TEMP:  35;

HARBOR SPRINGS LGT SNOW  33  32  96 W10       29.63R WCI  25
HOUGHTON LAKE  CLOUDY    35  31  85 W14G23    29.66R WCI  26
6HR MIN TEMP:  32; 6HR MAX TEMP:  35; 6HR PCP:  0.03;

MANISTEE       PTCLDY    36  30  80 W17G23    29.77R WCI  25
OSCODA         CLOUDY    37  33  86 W13       29.59R WCI  29
PELLSTON       CLOUDY    35  32  88 W20G26    29.60R WCI  24
6HR MIN TEMP:  34; 6HR MAX TEMP:  35; 6HR PCP:  0.06;

ROGERS CITY    CLOUDY    35  33  92 W15G21    29.55R WCI  25
TRAVERSE CITY  CLOUDY    38  32  79 W15       29.70R WCI  29
6HR MIN TEMP:  35; 6HR MAX TEMP:  39; 6HR PCP:  0.04;

$$
MIZ007>008-015-300700-
EASTERN UPPER MICHIGAN

CITY           SKY/WX    TMP DP  RH WIND       PRES   REMARKS
KINROSS        CLOUDY    34  32  93 NW23G32   29.50R WCI  22
6HR MIN TEMP:  32; 6HR MAX TEMP:  34;

MACKINAC ISLAN LGT SNOW  33  33 100 W14G21    29.57R WCI  23
6HR MIN TEMP:  32; 6HR MAX TEMP:  34;

NEWBERRY       CLOUDY    34  31  90 NW13G30   29.59R WCI  25
S. S. MARIE    LGT SNOW  34  31  88 NW20G31   29.51R FOG     WCI  23
6HR MIN TEMP:  32; 6HR MAX TEMP:  34; 6HR PCP:  0.13;

MUNISING         N/A     38  29  70 NW16G24   29.66R WCI  29
6HR MIN TEMP:  35; 6HR MAX TEMP:  39; 6HR PCP:  0.03;

$$
MIZ004>006-011>014-085-300700-
CENTRAL UPPER MICHIGAN

CITY           SKY/WX    TMP DP  RH WIND       PRES   REMARKS
MANISTIQUE     PTCLDY    35  32  90 NW12G17   29.64R WCI  26
ESCANABA       PTCLDY    36  30  80 NW12G20   29.70R WCI  27
6HR MIN TEMP:  34; 6HR MAX TEMP:  37;

MENOMINEE      CLEAR     36  28  75 W7        29.76R WCI  30
6HR MIN TEMP:  36; 6HR MAX TEMP:  39;

SAWYER-GWINN   PTCLDY    34  30  84 NW12      29.68R WCI  26
$$
MIZ001>003-009>011-084-300700-
WESTERN UPPER MICHIGAN

CITY           SKY/WX    TMP DP  RH WIND       PRES   REMARKS
IRON MOUNTAIN  CLEAR     37  27  67 W15       29.72R WCI  28
6HR MIN TEMP:  36; 6HR MAX TEMP:  38; 6HR PCP: TRACE;

HOUGHTON       CLOUDY    35  28  75 NW20      29.69R WCI  24
6HR MIN TEMP:  34; 6HR MAX TEMP:  36; 6HR PCP:  0.01;

COPPER HARBOR    N/A     37  28  70 N22G36    29.66R WCI  26
6HR MIN TEMP:  35; 6HR MAX TEMP:  37;

IRONWOOD       CLEAR     34  27  75 W10       29.77S WCI  26
6HR MIN TEMP:  34; 6HR MAX TEMP:  37;

$$

ABBREVIATIONS USED IN REMARKS
   TC - TEMPERATURE IN CELSIUS
  WCI - WIND CHILL INDEX
   HX - HEAT INDEX
  VSB - VISIBILITY



USA.gov is the U.S. government's official web portal to all federal, state and local government web resources and services.